Location: Izdebno
(52.6670°N, 16.2170°E)
Time: 03:05:16
(UTC+02:00)

Transit 4A - Pass Details

Date: 24 February 2024
Orbit: 871 x 972 km, 66.8° (Epoch: 22 April)

Event Time Altitude Azimuth Distance (km) Brightness Sun altitude
Rises 10:09:22 0° 319° (NW) 3,511 10.3 22.7°
Reaches altitude 10° 10:11:55 10° 316° (NW) 2,556 9.7 23.0°
Maximum altitude 10:17:41 59° 239° (WSW) 1,005 8.5 23.4°
Drops below altitude 10° 10:23:22 10° 161° (SSE) 2,514 12.1 23.8°
Sets 10:25:52 0° 157° (SSE) 3,449 12.3 24.0°
